Harvey, ND

7:02 AM CDT on July 22, 2017 (GMT -0500)
Harvey

Weather History for K5H4 - December, 2012

Change the Weather History Date:

Tuesday, December 4, 2012

  Actual Average (KRUG) Record (KRUG)
Temperature  
Mean Temperature 14 °F -  
Max Temperature 19 °F 27 °F 51 °F (1979)
Min Temperature 10 °F 8 °F -19 °F (1964)
Degree Days  
Heating Degree Days 50    
Moisture  
Dew Point 9 °F    
Average Humidity 79    
Maximum Humidity 86    
Minimum Humidity 63    
Precipitation  
Precipitation 0.00 in - - ()
Sea Level Pressure  
Sea Level Pressure 30.19 in    
Wind  
Wind Speed 11 mph (North)    
Max Wind Speed 17 mph    
Max Gust Speed 22 mph    
Visibility 10 miles    
Events      
Averages and records for this station are not official NWS values.
T = Trace of Precipitation, MM = Missing Value Source: NWS Daily Summary

Daily Weather History Graph

Daily Weather History Graph

Search for Another Location

Airport or City:

Trip Planner

Search our weather history database for the weather conditions in past years. The results will help you decide how hot, cold, wet, or windy it might be!

Date:

Astronomy

Dec. 04, 2012 Rise Set
Actual Time 8:11 AM CST 4:48 PM CST
Civil Twilight 7:36 AM CST 5:23 PM CST
Nautical Twilight 6:57 AM CST 6:02 PM CST
Astronomical Twilight 6:19 AM CST 6:40 PM CST
Moon 10:54 PM CST (12/4) 11:51 AM CST (12/4)
Length of Visible Light 9h 47m
Length of Day
8h 36m
Waning Gibbous, 69% of the Moon is Illuminated
Dec 4
Waning Gibbous
Dec 6
Last Quarter
Dec 13
New
Dec 19
First Quarter
Dec 28
Full

Hourly Weather History & Observations

Time (CST) Temp. Windchill Dew Point Humidity Pressure Visibility Wind Dir Wind Speed Gust Speed Precip Events Conditions
12:15 AM 14.0 °F 0.5 °F 10.4 °F 86% 29.99 in 10.0 mi WNW 11.5 mph - N/A   Clear
12:35 AM 14.0 °F -0.2 °F 8.6 °F 79% 30.00 in 10.0 mi WNW 12.7 mph - N/A   Clear
12:55 AM 14.0 °F -1.4 °F 10.4 °F 86% 30.00 in 10.0 mi NW 15.0 mph - N/A   Clear
1:15 AM 14.0 °F -0.8 °F 8.6 °F 79% 30.02 in 10.0 mi NW 13.8 mph - N/A   Clear
1:35 AM 14.0 °F -2.5 °F 8.6 °F 79% 30.02 in 10.0 mi NW 17.3 mph - N/A   Clear
1:55 AM 14.0 °F 0.5 °F 8.6 °F 79% 30.04 in 10.0 mi NW 11.5 mph - N/A   Clear
2:15 AM 12.2 °F -3.1 °F 8.6 °F 85% 30.05 in 10.0 mi NW 13.8 mph - N/A   Clear
2:55 AM 12.2 °F -3.1 °F 6.8 °F 79% 30.07 in 10.0 mi NW 13.8 mph - N/A   Clear
3:15 AM 10.4 °F -5.4 °F 6.8 °F 85% 30.07 in 10.0 mi NW 13.8 mph 18.4 mph N/A   Clear
3:35 AM 10.4 °F -6.6 °F 6.8 °F 85% 30.08 in 10.0 mi WNW 16.1 mph 21.9 mph N/A   Clear
3:55 AM 10.4 °F -6.0 °F 6.8 °F 85% 30.09 in 10.0 mi WNW 15.0 mph 20.7 mph N/A   Clear
4:15 AM 10.4 °F -5.4 °F 6.8 °F 85% 30.09 in 10.0 mi NW 13.8 mph - N/A   Clear
4:35 AM 10.4 °F -2.4 °F 6.8 °F 85% 30.10 in 10.0 mi NW 9.2 mph - N/A   Clear
4:55 AM 10.4 °F -5.4 °F 5.0 °F 79% 30.10 in 10.0 mi NW 13.8 mph - N/A   Clear
5:15 AM 10.4 °F -6.6 °F 5.0 °F 79% 30.11 in 10.0 mi NW 16.1 mph - N/A   Scattered Clouds
5:35 AM 10.4 °F -5.4 °F 6.8 °F 85% 30.12 in 10.0 mi NW 13.8 mph - N/A   Overcast
5:55 AM 10.4 °F -6.6 °F 6.8 °F 85% 30.13 in 10.0 mi WNW 16.1 mph - N/A   Overcast
6:15 AM 10.4 °F -4.8 °F 6.8 °F 85% 30.14 in 10.0 mi NW 12.7 mph - N/A   Overcast
6:35 AM 10.4 °F -4.8 °F 6.8 °F 85% 30.15 in 10.0 mi NW 12.7 mph - N/A   Overcast
6:55 AM 10.4 °F -4.8 °F 6.8 °F 85% 30.17 in 10.0 mi NW 12.7 mph - N/A   Overcast
7:15 AM 10.4 °F -4.1 °F 6.8 °F 85% 30.18 in 10.0 mi NW 11.5 mph - N/A   Overcast
7:35 AM 10.4 °F -1.5 °F 6.8 °F 85% 30.20 in 10.0 mi NW 8.1 mph - N/A   Overcast
7:55 AM 10.4 °F -5.4 °F 6.8 °F 85% 30.20 in 10.0 mi NW 13.8 mph - N/A   Mostly Cloudy
8:15 AM 10.4 °F -2.4 °F 6.8 °F 85% 30.21 in 10.0 mi NW 9.2 mph - N/A   Clear
8:35 AM 10.4 °F -2.4 °F 6.8 °F 85% 30.22 in 10.0 mi NW 9.2 mph - N/A   Clear
8:55 AM 10.4 °F -3.3 °F 6.8 °F 85% 30.22 in 10.0 mi NNW 10.4 mph - N/A   Clear
9:15 AM 10.4 °F -4.1 °F 6.8 °F 85% 30.23 in 10.0 mi NNW 11.5 mph - N/A   Clear
9:35 AM 10.4 °F -4.1 °F 6.8 °F 85% 30.24 in 10.0 mi North 11.5 mph - N/A   Clear
9:55 AM 12.2 °F -1.0 °F 6.8 °F 79% 30.25 in 10.0 mi NNW 10.4 mph - N/A   Clear
10:15 AM 12.2 °F -0.2 °F 6.8 °F 79% 30.26 in 10.0 mi NNW 9.2 mph - N/A   Clear
10:35 AM 12.2 °F -0.2 °F 6.8 °F 79% 30.27 in 10.0 mi NW 9.2 mph - N/A   Clear
10:55 AM 14.0 °F 2.0 °F 6.8 °F 73% 30.26 in 10.0 mi North 9.2 mph - N/A   Clear
11:15 AM 14.0 °F 5.1 °F 6.8 °F 73% 30.26 in 10.0 mi NW 5.8 mph - N/A   Clear
11:35 AM 14.0 °F 6.5 °F 6.8 °F 73% 30.25 in 10.0 mi NW 4.6 mph - N/A   Clear
12:15 PM 15.8 °F - 6.8 °F 68% 30.25 in 10.0 mi Calm Calm - N/A   Clear
12:35 PM 15.8 °F 10.2 °F 8.6 °F 73% 30.26 in 10.0 mi NNW 3.5 mph - N/A   Clear
12:55 PM 17.6 °F - 8.6 °F 68% 30.26 in 10.0 mi Calm Calm - N/A   Clear
1:15 PM 17.6 °F - 8.6 °F 68% 30.26 in 10.0 mi Calm Calm - N/A   Clear
1:35 PM 19.4 °F - 8.6 °F 63% 30.27 in 10.0 mi Calm Calm - N/A   Clear
1:55 PM 19.4 °F - 8.6 °F 63% 30.26 in 10.0 mi Calm Calm - N/A   Clear
2:15 PM 19.4 °F - 8.6 °F 63% 30.25 in 10.0 mi Calm Calm - N/A   Clear
2:35 PM 19.4 °F - 8.6 °F 63% 30.26 in 10.0 mi Calm Calm - N/A   Clear
2:55 PM 19.4 °F - 8.6 °F 63% 30.26 in 10.0 mi Calm Calm - N/A   Clear
3:15 PM 19.4 °F - 8.6 °F 63% 30.25 in 10.0 mi Calm Calm - N/A   Clear
3:35 PM 17.6 °F - 8.6 °F 68% 30.24 in 10.0 mi Calm Calm - N/A   Clear
3:55 PM 17.6 °F 12.3 °F 8.6 °F 68% 30.24 in 10.0 mi ENE 3.5 mph - N/A   Clear
4:15 PM 17.6 °F 8.2 °F 10.4 °F 73% 30.24 in 10.0 mi East 6.9 mph - N/A   Clear
4:35 PM 17.6 °F 10.7 °F 10.4 °F 73% 30.25 in 10.0 mi East 4.6 mph - N/A   Clear
4:55 PM 17.6 °F 8.2 °F 10.4 °F 73% 30.23 in 10.0 mi ESE 6.9 mph - N/A   Clear
5:15 PM 15.8 °F 7.2 °F 10.4 °F 79% 30.23 in 10.0 mi ESE 5.8 mph - N/A   Clear
5:35 PM 15.8 °F 8.6 °F 10.4 °F 79% 30.24 in 10.0 mi ESE 4.6 mph - N/A   Clear
5:55 PM 15.8 °F 7.2 °F 10.4 °F 79% 30.24 in 10.0 mi ESE 5.8 mph - N/A   Clear
6:15 PM 15.8 °F 6.1 °F 10.4 °F 79% 30.24 in 10.0 mi ESE 6.9 mph - N/A   Clear
6:35 PM 14.0 °F 3.9 °F 10.4 °F 86% 30.24 in 10.0 mi ESE 6.9 mph - N/A   Clear
6:55 PM 15.8 °F 5.1 °F 12.2 °F 86% 30.24 in 10.0 mi ESE 8.1 mph - N/A   Clear
7:15 PM 15.8 °F 2.7 °F 12.2 °F 86% 30.24 in 10.0 mi East 11.5 mph - N/A   Clear
7:35 PM 15.8 °F 5.1 °F 10.4 °F 79% 30.24 in 10.0 mi SE 8.1 mph - N/A   Clear
7:55 PM 15.8 °F 5.1 °F 10.4 °F 79% 30.24 in 10.0 mi SE 8.1 mph - N/A   Clear
8:15 PM 14.0 °F 2.0 °F 10.4 °F 86% 30.24 in 10.0 mi ESE 9.2 mph - N/A   Clear
8:35 PM 14.0 °F 2.0 °F 10.4 °F 86% 30.23 in 10.0 mi ESE 9.2 mph - N/A   Clear
8:55 PM 14.0 °F 0.5 °F 10.4 °F 86% 30.23 in 10.0 mi ESE 11.5 mph - N/A   Clear
9:15 PM 14.0 °F 0.5 °F 10.4 °F 86% 30.22 in 10.0 mi ESE 11.5 mph - N/A   Clear
9:35 PM 14.0 °F 1.2 °F 10.4 °F 86% 30.23 in 10.0 mi ESE 10.4 mph - N/A   Clear
9:55 PM 14.0 °F 2.0 °F 10.4 °F 86% 30.23 in 10.0 mi SE 9.2 mph - N/A   Clear
10:15 PM 15.8 °F 2.1 °F 12.2 °F 86% 30.22 in 10.0 mi SE 12.7 mph - N/A   Mostly Cloudy
10:35 PM 15.8 °F 1.4 °F 10.4 °F 79% 30.20 in 10.0 mi SE 13.8 mph 19.6 mph N/A   Scattered Clouds
10:55 PM 15.8 °F 1.4 °F 10.4 °F 79% 30.19 in 10.0 mi SE 13.8 mph 19.6 mph N/A   Clear
11:15 PM 15.8 °F 1.4 °F 10.4 °F 79% 30.18 in 10.0 mi SE 13.8 mph - N/A   Clear
11:35 PM 15.8 °F 1.4 °F 10.4 °F 79% 30.18 in 10.0 mi SE 13.8 mph 20.7 mph N/A   Clear
11:55 PM 15.8 °F 0.9 °F 10.4 °F 79% 30.18 in 10.0 mi SE 15.0 mph 19.6 mph N/A   Clear